SCP
1 0 0 0 1 0 0 0 0 0 0 0 0 0 0 0 1 1 2 3 5 6 6 6 6 6 6 7 6 5 4 4 3 3 2 2 2 2 1 1 1 1 1 1 0 0 0 0 0
1 1 0 1 1 0 0 0 0 0 0 0 0 0 1 1 1 2 3 4 5 6 7 6 6 6 6 7 7 6 5 4 3 3 3 2 2 2 1 1 1 1 1 1 0 0 0 0 0
1 1 1 1 1 0 0 0 0 0 0 0 0 1 1 1 2 3 4 5 6 6 7 7 6 6 6 7 7 6 5 4 3 3 2 2 2 2 2 1 1 1 1 1 1 0 0 0 0
1 1 1 1 0 0 0 0 0 0 0 0 1 1 1 1 2 3 5 6 6 7 7 7 7 6 6 6 7 6 5 4 3 3 2 2 2 2 2 2 2 2 1 1 1 1 1 0 0
2 2 1 1 0 0 0 0 0 0 0 0 1 2 2 2 2 4 6 7 7 7 7 7 7 7 6 6 6 6 5 5 4 3 2 2 2 2 2 2 2 2 2 1 1 1 1 1 1
2 2 1 1 0 0 0 0 0 0 0 0 1 2 3 3 4 5 7 8 8 7 6 6 7 7 6 5 5 5 5 5 4 3 3 2 2 2 1 1 1 1 1 1 1 1 1 1 1
2 1 1 0 0 0 0 0 0 0 0 0 1 3 4 5 5 6 8 9 8 7 6 6 6 7 6 5 5 4 4 4 4 3 3 2 2 2 1 1 1 1 1 1 1 1 1 1 1
1 1 1 0 0 0 0 0 0 0 0 1 2 3 4 5 7 8 9 9 9 8 7 6 6 6 7 6 5 4 4 4 4 4 3 3 3 2 1 1 1 1 1 1 1 1 1 1 1
1 1 1 0 0 0 0 0 0 0 1 2 2 3 5 7 8 9 9 9 9 8 8 7 6 6 6 6 5 4 4 4 4 4 3 3 3 2 1 1 1 1 1 1 1 1 1 1 1
1 1 0 0 0 0 0 0 0 0 1 2 3 4 6 8 10 9 9 8 8 8 8 8 7 6 7 7 6 5 4 4 4 4 3 3 3 2 1 1 1 1 1 1 0 0 1 0 0
1 0 0 0 0 0 0 0 0 0 1 1 2 4 7 10 10 9 7 7 8 8 8 8 8 6 6 7 7 6 5 5 4 4 3 3 3 2 1 1 0 0 0 0 0 0 0 0 0
0 0 0 0 0 1 1 0 0 0 1 1 3 5 7 9 8 7 6 7 8 8 8 8 7 6 6 7 7 7 6 5 5 4 3 3 2 2 1 1 0 0 0 0 0 0 0 0 0
0 0 0 0 0 0 0 0 1 1 1 2 3 6 7 7 7 7 6 7 7 8 8 8 6 5 5 6 7 7 7 6 5 4 3 3 2 2 1 1 1 0 0 0 0 0 0 0 0
0 0 0 0 0 0 0 1 1 1 2 3 4 5 7 8 8 8 8 7 7 8 8 7 6 5 5 5 6 7 7 6 5 4 3 3 2 2 1 1 1 0 0 0 0 0 0 0 0
0 0 0 0 0 0 0 1 1 2 2 3 3 4 6 8 11 11 10 8 7 7 7 6 6 5 5 5 5 5 6 6 5 5 4 3 2 2 1 1 1 1 0 0 0 0 0 0 0
1 0 1 0 0 0 1 1 1 2 2 2 3 3 4 7 10 11 11 10 8 7 7 6 6 5 5 5 4 4 4 5 5 5 4 3 2 2 1 1 1 1 0 0 0 0 0 0 0
1 1 1 1 0 0 1 1 2 2 2 2 2 3 3 5 7 9 11 11 9 7 6 6 6 6 5 5 4 3 3 3 4 4 4 3 2 1 1 1 1 1 0 0 0 0 0 0 0
1 1 1 1 1 1 1 1 2 2 2 2 2 2 3 4 5 7 9 9 8 6 5 5 6 6 6 6 5 3 3 3 3 3 3 3 2 1 1 1 1 1 1 0 0 0 0 0 0
0 1 1 1 1 1 2 2 2 2 1 1 1 2 3 4 6 6 7 7 6 4 4 4 5 5 6 5 4 3 3 3 3 2 2 2 2 1 1 1 1 1 1 0 0 0 0 0 0
0 1 1 1 1 1 2 2 1 1 1 0 1 1 2 4 6 5 5 4 4 4 3 3 3 4 5 5 4 3 3 3 3 2 2 2 2 1 1 1 1 1 1 1 0 0 0 0 0
0 1 1 1 1 1 1 1 1 0 0 0 1 1 2 3 4 4 4 3 4 3 3 2 2 3 4 4 4 4 3 3 2 2 2 2 1 1 1 1 1 1 1 1 0 0 0 0 0
0 0 1 1 0 0 1 1 0 0 0 0 1 1 1 2 3 3 3 3 3 3 2 2 2 2 3 4 4 4 3 2 2 2 2 2 1 1 2 1 1 1 1 1 0 0 0 0 0
0 0 0 0 0 0 0 0 0 0 0 0 0 1 1 2 3 3 3 3 3 3 2 2 2 2 2 3 4 3 3 2 1 1 1 1 1 1 2 2 1 1 0 0 0 0 0 0 0
0 0 0 0 0 0 0 0 0 0 0 0 0 0 1 2 3 3 3 3 3 3 3 2 2 1 2 2 3 3 3 2 1 1 1 1 1 1 1 2 1 1 1 0 0 0 0 0 0
0 0 0 1 1 0 0 0 0 0 0 0 0 0 1 2 3 3 2 2 3 3 2 2 1 1 1 2 2 3 2 1 1 0 0 0 1 1 1 1 1 1 1 0 0 0 0 0 0
0 0 0 0 0 0 0 0 0 0 0 0 0 1 1 2 3 3 2 2 3 3 2 2 1 1 1 1 2 2 2 1 1 0 0 0 0 0 0 1 1 1 1 0 0 0 0 0 0
0 0 0 0 0 0 0 0 0 0 0 0 0 1 1 2 2 2 2 2 2 2 2 2 1 1 1 1 1 1 1 1 0 0 0 0 0 0 0 0 0 0 0 0 0 0 0 0 0
0 0 0 0 0 0 0 0 0 0 0 0 0 0 1 1 1 2 2 2 2 2 2 1 1 1 1 1 1 1 1 1 0 0 0 0 0 0 0 0 0 0 0 0 0 0 0 0 0
0 0 0 0 0 0 0 0 0 0 0 0 0 0 0 0 1 1 1 1 1 1 1 1 0 0 1 1 1 0 1 0 0 0 0 0 0 0 0 0 0 0 0 0 0 0 0 0 0
0 0 0 0 0 0 0 0 0 0 0 0 0 0 0 0 1 1 1 1 1 1 1 0 0 0 0 0 0 0 1 0 0 0 0 0 0 0 0 0 0 0 0 0 0 0 0 0 0
Wind_Speed
8 5 2 3 4 2 5 5 3 2 2 3 2 4 5 4 3 3 2 8 10 11 11 13 14 14 14 14 14 14 14 13 13 14 14 14 14 13 13 13 13 13 13 13 13 13 12 12 12
3 3 3 3 4 3 6 5 5 5 4 2 1 3 4 2 2 5 4 7 11 11 10 11 15 14 14 14 14 14 14 13 13 14 13 13 13 13 13 13 13 13 12 12 12 12 12 12 11
3 1 2 3 4 8 6 4 6 4 3 1 1 2 3 3 3 3 5 10 11 9 8 11 15 15 15 15 14 14 14 14 14 13 13 13 13 13 13 12 12 12 12 12 11 11 11 11 10
2 2 2 2 9 8 5 3 3 2 2 1 3 2 1 1 3 4 8 11 11 8 7 10 14 15 15 14 14 14 14 14 14 13 13 13 13 13 12 12 12 12 12 11 11 10 10 10 10
2 3 2 5 9 5 3 3 1 1 1 0 3 3 1 2 4 9 11 11 12 9 7 10 13 14 15 14 14 14 13 13 13 13 13 13 13 12 12 12 12 12 11 11 10 10 9 9 9
2 2 4 9 9 5 3 2 1 1 1 1 3 3 1 2 6 9 10 10 10 10 8 9 12 12 13 14 14 13 13 13 13 13 13 13 12 12 12 11 11 11 11 10 9 9 8 8 8
3 4 6 6 6 5 5 2 2 2 2 2 3 4 2 1 3 7 9 9 8 9 8 7 8 9 11 13 13 13 12 12 12 12 12 12 11 11 11 11 11 10 10 9 8 8 7 7 7
3 3 5 6 6 6 4 2 2 2 3 1 2 6 4 3 2 6 8 8 8 7 7 7 7 6 6 7 11 12 12 12 11 11 11 11 10 10 10 9 9 9 8 8 7 7 6 6 6
2 3 8 8 7 5 3 2 2 1 1 1 1 3 4 6 7 8 8 7 6 6 5 6 6 6 6 6 8 9 10 10 10 9 10 9 5 5 5 7 8 8 8 7 6 6 5 5 5
3 7 10 5 4 4 2 2 2 0 1 1 2 3 5 7 8 8 9 10 8 7 6 5 6 6 6 5 5 4 5 6 5 5 5 4 4 4 5 7 7 7 6 6 5 5 4 3 2
3 6 5 4 3 3 3 2 1 3 3 4 5 6 6 7 7 7 6 8 9 8 7 5 6 6 6 4 4 3 3 4 4 5 5 4 4 3 3 2 3 3 3 2 2 3 1 1 1
3 5 4 4 3 3 3 2 1 3 5 4 7 10 8 8 8 7 6 6 7 8 6 6 6 6 5 5 4 4 3 3 3 4 6 5 3 3 2 2 2 1 1 1 1 1 1 1 1
5 5 5 4 3 2 2 3 2 4 3 2 5 7 9 7 6 5 5 6 6 7 7 6 6 6 6 5 4 4 3 3 4 4 4 5 4 4 3 2 2 1 1 1 1 1 1 1 1
4 4 4 4 4 4 3 4 3 4 2 4 6 7 7 7 6 5 5 5 6 7 7 6 6 6 5 4 4 4 3 3 3 3 4 5 4 4 4 3 2 2 2 1 1 1 1 0 1
2 2 3 4 4 3 2 5 7 5 3 5 6 6 6 5 5 6 6 6 6 7 7 6 6 5 5 5 4 4 3 3 3 3 3 4 5 5 4 3 2 2 2 2 2 1 1 1 1
1 2 4 4 3 3 4 9 6 3 5 5 5 5 5 4 4 4 4 5 5 6 7 6 6 6 5 4 4 3 3 3 3 3 3 3 4 5 4 3 3 2 2 2 2 1 1 1 1
2 4 6 4 4 3 5 7 4 3 6 5 5 5 5 3 2 2 3 4 5 6 6 6 6 7 5 5 4 4 3 3 3 3 3 2 3 4 4 3 2 3 2 2 2 1 1 1 1
6 5 5 6 4 4 5 6 4 3 5 5 4 4 4 4 3 2 2 3 5 5 5 5 5 6 5 4 4 3 3 2 2 2 3 3 3 3 3 2 2 3 3 2 2 2 1 1 1
5 5 4 5 3 4 6 7 6 4 3 4 4 4 5 4 3 2 2 3 4 4 4 5 5 5 5 4 4 3 3 2 2 2 3 3 3 3 3 3 3 3 3 3 3 2 2 1 1
5 4 3 3 3 4 5 6 5 4 5 6 7 6 6 4 2 2 2 3 3 4 4 4 4 4 4 4 3 3 3 2 2 2 2 3 3 2 3 4 3 3 3 3 3 3 2 0 1
5 7 6 3 2 1 2 4 4 3 2 3 4 5 5 6 5 4 3 3 3 3 3 3 3 4 4 4 3 3 2 2 1 1 2 2 3 2 2 3 3 3 3 3 3 3 3 2 0
5 5 5 3 1 2 3 3 5 4 3 4 4 4 5 5 5 4 4 4 3 2 2 3 2 3 3 4 4 5 4 3 3 2 2 2 3 3 2 3 3 3 2 3 2 2 2 3 1
5 3 3 3 3 1 1 3 5 2 4 6 5 5 5 5 6 5 5 5 4 3 2 2 3 3 3 4 5 5 3 2 2 3 3 2 2 3 2 3 3 3 2 2 2 2 2 2 2
2 2 3 2 2 2 3 4 5 5 7 6 5 5 5 5 4 4 4 3 3 3 2 2 2 2 2 3 4 4 5 4 4 4 4 2 1 1 2 2 3 3 3 2 2 2 2 2 2
2 4 3 2 0 4 2 3 7 6 5 6 6 5 4 5 5 4 4 3 3 3 2 2 2 2 2 2 3 3 4 5 6 6 5 4 2 2 3 2 3 3 3 3 3 2 2 2 2
3 5 4 3 3 2 1 5 6 3 2 2 3 3 3 4 4 4 5 4 4 4 3 3 3 2 3 3 3 3 3 3 3 4 4 4 3 2 3 3 3 3 3 3 3 2 2 2 2
3 3 3 3 1 1 3 4 6 1 0 1 2 2 3 4 4 4 4 4 4 4 4 4 4 3 3 3 3 3 3 3 3 3 3 2 2 2 3 3 3 3 3 3 2 2 2 2 1
2 3 3 3 2 2 3 3 4 3 3 3 3 4 4 3 3 3 3 3 3 3 3 3 4 4 4 3 2 2 3 3 3 3 3 3 2 2 3 3 3 3 3 2 2 2 1 2 1
1 2 2 2 2 3 3 6 4 4 4 6 6 5 5 4 4 3 3 3 2 2 2 3 3 3 3 3 2 3 2 3 3 3 3 3 3 3 3 3 2 3 3 3 2 2 2 2 1
1 2 3 4 2 2 2 7 3 3 3 4 4 4 3 3 3 3 3 2 1 2 2 2 2 3 3 3 3 3 3 3 3 3 2 3 3 2 2 2 2 3 3 3 3 3 2 3 3
Wind_Direction
327 332 25 54 65 72 229 236 218 190 195 220 179 126 131 139 151 163 130 134 132 141 146 145 144 141 137 134 131 127 125 122 119 118 116 115 113 111 109 107 106 104 101 100 98 95 92 88 86
336 341 48 70 124 200 243 232 214 216 198 175 101 93 92 98 86 107 117 139 138 141 145 147 144 141 137 134 132 130 127 124 122 119 119 118 116 113 109 108 107 105 102 100 99 96 93 90 87
333 8 89 113 183 202 216 216 209 235 242 166 76 61 118 134 123 134 147 141 134 136 140 145 143 141 139 136 134 131 127 125 124 122 121 120 118 115 112 110 110 106 103 102 100 98 96 92 91
53 51 60 176 218 221 209 211 183 209 303 20 107 67 73 118 150 142 136 137 131 132 136 142 141 141 139 138 135 132 128 126 125 123 122 120 118 115 113 113 113 110 107 104 101 99 98 96 93
70 102 166 226 231 237 237 263 218 175 234 38 112 112 17 358 104 125 131 136 135 135 137 144 139 143 141 139 137 133 131 129 127 126 124 121 118 116 114 115 116 113 111 107 104 100 99 97 94
106 121 186 220 230 237 247 258 304 305 258 14 104 123 163 77 106 131 135 136 139 139 140 142 140 138 143 142 140 137 135 133 131 129 126 123 121 120 119 118 117 115 113 110 108 105 102 98 92
160 167 205 213 226 235 241 238 217 233 255 247 142 125 148 90 124 133 133 129 129 133 135 138 140 138 140 143 141 139 137 135 135 132 128 125 123 122 121 119 117 117 117 114 111 107 104 100 93
163 156 209 209 210 230 232 219 222 203 238 248 138 141 169 201 135 117 121 120 119 122 130 134 136 133 134 139 140 139 138 136 134 130 127 124 123 121 120 119 119 119 118 117 115 109 105 101 89
138 187 212 207 199 214 218 208 266 271 179 301 162 166 164 144 123 115 118 115 119 121 126 135 137 133 131 133 136 138 137 136 133 131 127 120 118 118 119 121 120 121 120 118 115 110 106 97 80
167 212 221 212 192 187 215 211 231 338 314 309 19 55 113 128 126 128 141 144 146 147 146 146 141 139 137 137 128 137 138 139 135 133 129 125 123 125 121 122 120 120 119 115 110 103 96 76 58
197 218 228 244 226 193 209 242 242 167 238 220 172 155 143 138 133 139 149 157 158 156 150 146 146 142 139 136 135 133 135 138 138 139 136 128 122 119 112 115 113 108 105 86 78 70 54 67 68
226 253 251 254 250 220 219 231 270 221 225 216 175 163 158 157 157 162 161 164 156 151 150 147 140 137 135 133 137 133 135 144 147 148 144 137 132 128 127 122 122 112 103 98 74 67 49 56 66
238 251 251 262 271 254 238 238 247 264 246 183 160 164 164 167 166 168 165 160 155 150 149 150 142 138 139 135 138 134 138 147 153 151 150 145 142 144 139 139 134 131 122 127 115 96 79 60 68
222 237 253 274 274 264 226 259 234 247 199 158 166 173 171 170 165 160 159 155 157 155 155 152 146 142 139 140 142 142 144 142 143 148 156 152 148 148 149 150 147 147 146 148 142 139 117 83 75
223 234 277 261 252 243 196 274 232 220 172 170 181 182 175 171 162 166 170 169 165 162 155 154 150 142 141 138 144 141 141 138 141 134 147 155 152 152 154 154 155 164 155 140 121 103 82 73 64
204 191 231 249 218 231 180 241 241 177 170 185 197 192 182 179 170 165 161 162 159 159 153 156 149 142 142 139 141 138 134 134 134 131 132 145 149 153 152 154 160 159 145 135 131 125 99 79 76
183 202 218 242 219 208 194 232 242 185 181 192 196 194 178 175 167 167 163 162 157 159 153 154 149 149 148 141 134 132 131 131 136 134 133 141 146 144 146 155 158 152 140 136 143 122 128 116 93
199 201 208 217 218 205 217 239 246 212 189 191 191 185 172 174 186 177 160 154 145 147 143 147 149 149 144 132 119 112 110 116 125 135 140 135 145 146 140 141 154 149 140 136 137 131 107 132 154
200 198 218 236 226 205 217 234 241 225 184 185 192 184 178 189 196 159 137 131 122 130 135 143 147 150 146 146 142 140 149 156 150 150 144 136 139 153 148 144 146 151 151 154 146 132 121 79 99
212 210 216 263 225 207 212 242 247 221 203 196 194 191 183 176 172 151 137 131 137 142 143 142 145 157 160 160 157 150 143 149 153 149 144 144 145 152 157 152 155 152 143 138 138 132 128 89 81
217 201 206 215 337 124 174 265 246 246 229 225 199 186 182 179 181 182 161 151 148 144 153 153 161 162 158 148 137 122 100 97 108 136 165 162 156 153 153 156 149 148 147 156 156 150 147 159 226
226 213 202 197 152 235 175 229 253 214 225 224 212 197 190 185 176 179 169 156 159 161 150 150 162 162 156 148 154 160 169 175 189 180 172 157 153 148 140 150 144 143 150 153 160 151 152 150 164
219 212 181 175 162 262 180 178 265 204 214 225 216 198 192 190 181 177 177 173 169 161 159 160 168 162 163 163 165 170 175 176 155 147 153 162 155 150 148 155 147 141 144 140 135 137 140 155 169
204 103 75 70 89 245 218 180 256 222 213 213 209 198 190 186 182 177 174 169 163 156 153 156 158 169 170 174 176 174 168 163 158 163 165 173 164 159 150 149 148 153 153 152 156 142 147 162 156
105 111 69 22 346 241 190 184 244 239 215 202 199 194 194 187 180 180 178 183 176 174 169 165 167 181 182 182 183 180 178 173 176 175 171 169 173 183 177 158 164 165 165 162 157 147 158 176 176
190 148 152 185 206 261 207 220 249 260 229 190 174 173 179 180 179 187 191 191 188 190 181 177 184 188 187 186 184 180 177 172 176 174 171 176 184 183 171 160 164 167 165 158 154 154 173 169 178
151 179 182 135 119 225 252 276 302 325 70 143 163 174 189 191 187 189 192 192 192 189 189 188 188 190 196 190 171 174 172 162 162 165 164 163 167 162 156 159 161 162 155 156 154 152 165 154 166
147 147 109 129 153 228 270 263 259 259 229 220 211 212 214 203 199 195 197 208 205 197 196 191 193 196 198 182 172 170 173 162 158 161 169 162 158 159 152 149 153 154 148 150 149 152 162 153 172
90 113 132 133 150 162 235 266 239 231 225 214 216 218 215 212 211 207 215 222 212 196 194 195 197 201 195 181 177 163 168 156 157 159 168 168 165 168 165 160 156 159 162 161 160 172 166 168 185
160 180 156 155 201 177 193 267 293 264 258 226 228 239 232 218 210 199 208 217 211 207 205 199 196 202 194 185 179 176 162 157 160 157 164 161 162 167 165 158 167 173 172 167 169 184 183 181 192